TimeEDT,TemperatureF,Dew PointF,Humidity,Sea Level PressureIn,VisibilityMPH,Wind Direction,Wind SpeedMPH,Gust SpeedMPH,PrecipitationIn,Events,Conditions,WindDirDegrees,DateUTC
12:29 AM,55.4,53.6,94,30.10,7.0,Calm,Calm,-,N/A,,Partly Cloudy,0,2012-10-05 04:29:00
12:54 AM,55.0,53.1,93,30.10,7.0,Calm,Calm,-,N/A,,Clear,0,2012-10-05 04:54:00
1:20 AM,53.6,51.8,94,30.10,8.0,Calm,Calm,-,N/A,,Partly Cloudy,0,2012-10-05 05:20:00
1:54 AM,53.1,52.0,96,30.11,8.0,NNW,3.5,-,N/A,,Partly Cloudy,330,2012-10-05 05:54:00
2:06 AM,53.6,51.8,94,30.11,7.0,Calm,Calm,-,N/A,,Mostly Cloudy,0,2012-10-05 06:06:00
2:54 AM,54.0,52.0,93,30.11,8.0,Calm,Calm,-,N/A,,Overcast,0,2012-10-05 06:54:00
3:24 AM,53.6,51.8,94,30.11,1.8,Calm,Calm,-,N/A,,Overcast,0,2012-10-05 07:24:00
3:35 AM,53.6,51.8,94,30.11,0.5,Calm,Calm,-,N/A,Fog,Fog,0,2012-10-05 07:35:00
3:50 AM,53.6,51.8,94,30.10,0.2,Calm,Calm,-,N/A,Fog,Fog,0,2012-10-05 07:50:00
3:54 AM,53.1,52.0,96,30.10,0.2,Calm,Calm,-,N/A,Fog,Fog,0,2012-10-05 07:54:00
4:54 AM,53.1,52.0,96,30.11,0.2,Calm,Calm,-,N/A,Fog,Fog,0,2012-10-05 08:54:00
5:39 AM,51.8,51.8,100,30.10,0.5,Calm,Calm,-,N/A,Fog,Fog,0,2012-10-05 09:39:00
5:54 AM,52.0,52.0,100,30.10,0.5,Calm,Calm,-,N/A,Fog,Fog,0,2012-10-05 09:54:00
6:06 AM,51.8,51.8,100,30.10,0.2,Calm,Calm,-,N/A,Fog,Fog,0,2012-10-05 10:06:00
6:54 AM,52.0,51.1,97,30.09,0.2,North,3.5,-,N/A,Fog,Fog,10,2012-10-05 10:54:00
7:54 AM,52.0,51.1,97,30.11,0.2,Calm,Calm,-,N/A,Fog,Fog,0,2012-10-05 11:54:00
8:54 AM,53.1,52.0,96,30.11,0.2,Calm,Calm,-,N/A,Fog,Fog,0,2012-10-05 12:54:00
9:30 AM,53.6,53.6,100,30.11,0.5,Calm,Calm,-,N/A,Fog,Fog,0,2012-10-05 13:30:00
9:54 AM,54.0,53.1,97,30.11,0.8,Calm,Calm,-,N/A,,Overcast,0,2012-10-05 13:54:00
10:06 AM,53.6,53.6,100,30.11,1.5,Calm,Calm,-,N/A,,Overcast,0,2012-10-05 14:06:00
10:17 AM,53.6,53.6,100,30.10,2.5,Calm,Calm,-,N/A,,Overcast,0,2012-10-05 14:17:00
10:54 AM,59.0,55.9,90,30.09,5.0,SE,3.5,-,N/A,,Scattered Clouds,130,2012-10-05 14:54:00
11:54 AM,64.0,57.0,78,30.06,10.0,ESE,4.6,-,N/A,,Clear,120,2012-10-05 15:54:00
12:54 PM,69.1,55.9,63,30.03,10.0,ESE,4.6,-,N/A,,Clear,110,2012-10-05 16:54:00
1:54 PM,73.9,57.9,57,29.99,10.0,ESE,3.5,-,N/A,,Clear,110,2012-10-05 17:54:00
2:54 PM,77.0,57.0,50,29.96,10.0,Calm,Calm,-,N/A,,Partly Cloudy,0,2012-10-05 18:54:00
3:54 PM,79.0,55.0,44,29.95,10.0,WSW,10.4,-,N/A,,Partly Cloudy,240,2012-10-05 19:54:00
4:54 PM,77.0,55.9,48,29.94,10.0,WSW,6.9,-,N/A,,Scattered Clouds,240,2012-10-05 20:54:00
5:54 PM,73.9,57.9,57,29.95,10.0,Calm,Calm,-,N/A,,Clear,0,2012-10-05 21:54:00
6:54 PM,70.0,55.9,61,29.93,10.0,Calm,Calm,-,N/A,,Clear,0,2012-10-05 22:54:00
7:54 PM,66.9,57.9,73,29.94,10.0,North,3.5,-,N/A,,Clear,350,2012-10-05 23:54:00
8:54 PM,62.1,57.9,86,29.93,10.0,Calm,Calm,-,N/A,,Clear,0,2012-10-06 00:54:00
9:54 PM,61.0,57.9,90,29.93,10.0,Calm,Calm,-,N/A,,Clear,0,2012-10-06 01:54:00
10:54 PM,59.0,57.0,93,29.91,7.0,Calm,Calm,-,N/A,,Partly Cloudy,0,2012-10-06 02:54:00
11:54 PM,57.9,55.9,93,29.89,6.0,Calm,Calm,-,N/A,,Clear,0,2012-10-06 03:54:00